SL-14 DEB

Satellite information

Favourite Embed

Satellite Type and Status

DEBRISIN ORBIT

Key statistics

Satellite SL-14 DEB at a glance.

Uptime

13901

Days in orbit

Revolutions

≈ 14.1

Per day

Orbit

LEO

Low Earth Orbit

Inclination

82.5

Latest

Satellite identification and parameters

Extended collection of information and parameters for SL-14 DEB.

Object identification

Identified? True

Debris? True

Object name: SL-14 DEB

International designator: 1987-068AR

Object number (NORAD): 25214

Object ID (CCSDS): 25214

Country: COMMONWEALTH OF INDEPENDENT STATES (CIS)

Current information (Y/N): Y

RCS size: SMALL

Orbital parameters

Period: 102.078 minutes

Inclination: 82.5464 deg

SMA: 7235.171 km

Apoapsis: 859.738 km

Periapsis: 854.334 km

RAAN: 338.8487 deg

Eccentricy: 0.00037346

Argument of periapsis: 244.9072 deg

Mean anomaly: 169.9135 deg

Mean motion: 14.10683536 rev/day

Mean motion (dot): 0.00002377 rev/day2

B* drag term: 0.0013226209 1/REarth

Two-line elements (TLE)

Creation date: Sept. 7, 2025, 9:49 a.m.

Reference frame: TEME

Reference center: EARTH

Epoch: Sept. 7, 2025, 6:43 a.m. UTC

TLE line 0: 0 SL-14 DEB

TLE line 1: 1 25214U 87068AR 25250.28001628 .00002377 00000-0 13226-2 0 9999

TLE line 2: 2 25214 82.5464 338.8487 0003735 244.9072 169.9135 14.10683536404955

Live tracking on map

Real-time ground track for satellite SL-14 DEB.

In-orbit conjunctions

A list of the most updated potential collisions computed for object SL-14 DEB.

Target Orbit TCA Probability of collision Miss distance Type
COSMOS 2251 DEB LEO 2024-12-20 12:59:58 0.0001018806 333.0 (m) DEBRIS
FENGYUN 1C DEB SSO 2024-11-10 14:09:51 0.0001734537 876.0 (m) DEBRIS
FENGYUN 1C DEB SSO 2024-11-10 01:18:34 0.0002870054 89.0 (m) DEBRIS

Associated space launch

Second generation soviet meteorological satellite

SL-14 DEB was lifted into orbit during the mission ‘Tsiklon-3 | Meteor-2 16’, on board a Tsiklon-3 space rocket.

The launch took place on Aug. 18, 1987, 2:27 a.m. from 32/1.

For more information about the launch, click the button.

Launch to space Tsiklon-3 | Meteor-2 16
Tsiklon-3 | Meteor-2 16

Agency: N/A

Status: Launch Successful

Launch date: Aug. 18, 1987, 2:27 a.m. UTC

Rocket: Tsiklon-3

Launch pad: 32/1

Location: Plesetsk Cosmodrome, Russian Federation

...

Latest news about this satellite

There are no fresh news available about this satellite. Check back as we update our databases every day.


Newsletter sign-up

Weekly statistics, charts and insights to help you stay on top of the space industry.